Location: Unspecified
(0.0000°N, 0.0000°E)
Time: 16:32:32
(UTC+00:00)

Hubble Space Telescope - Pass Details

Date: 18 January 2020
Orbit: 536 x 540 km, 28.5° (Epoch: 24 February)

Event Time Altitude Azimuth Distance (km) Brightness Sun altitude
Rises 19:28:58 0° 305° (NW) 2,668 4.8 -18.4°
Reaches altitude 10° 19:31:15 10° 308° (NW) 1,779 3.8 -18.9°
Maximum altitude 19:35:19 65° 30° (NNE) 588 0.7 -19.8°
Enters shadow 19:35:51 58° 72° (ENE) 626 0.7 -20.0°
